• Processing (Info)

  • MPEC 2014-R51 : 2014 QK433

    The following Minor Planet Electronic Circular may be linked-to from your own Web pages, but must not otherwise be redistributed electronically.

    A form allowing access to any MPEC is at the bottom of this page.


    Read MPEC 2014-R50 Read MPEC 2014-R52


    M.P.E.C. 2014-R51                                Issued 2014 Sept. 5, 14:24 UT
    
         The Minor Planet Electronic Circulars contain information on unusual
             minor planets and routine data on comets.  They are published
       on behalf of Commission 20 of the International Astronomical Union by the
              Minor Planet Center, Smithsonian Astrophysical Observatory,
                              Cambridge, MA 02138, U.S.A.
    
                 Prepared using the Tamkin Foundation Computer Network
    
                                  MPC@CFA.HARVARD.EDU
                URL https://www.minorplanetcenter.net/    ISSN 1523-6714
    
                                      2014 QK433
    
    Observations:
         K14Qh3K* S2014 08 28.36954 02 09 19.46 +70 26 17.5          20   RLER051C51
         K14Qh3K  s2014 08 28.36954 1 -  229.2519 + 1926.6949 + 6594.2807   ER051C51
         K14Qh3K  S2014 08 28.50109 02 09 22.03 +70 30 13.6                LER051C51
         K14Qh3K  s2014 08 28.50109 1 -  238.0952 + 1914.8214 + 6597.4250   ER051C51
         K14Qh3K  S2014 08 28.63263 02 09 24.00 +70 34 09.7                LER051C51
         K14Qh3K  s2014 08 28.63263 1 -  246.8765 + 1902.9318 + 6600.5411   ER051C51
         K14Qh3K  S2014 08 28.96141 02 09 29.25 +70 43 59.0                LER051C51
         K14Qh3K  s2014 08 28.96141 1 -  282.9394 + 1835.3215 + 6618.1870   ER051C51
         K14Qh3K  S2014 08 29.09295 02 09 31.48 +70 47 52.2                LER051C51
         K14Qh3K  s2014 08 29.09295 1 -  291.3840 + 1823.4040 + 6621.1139   ER051C51
         K14Qh3K  S2014 08 29.09308 02 09 31.56 +70 47 52.1                LER051C51
         K14Qh3K  s2014 08 29.09308 1 -  262.6456 + 1899.4630 + 6600.9620   ER051C51
         K14Qh3K  S2014 08 29.22449 02 09 33.46 +70 51 44.7                LER051C51
         K14Qh3K  s2014 08 29.22449 1 -  299.7459 + 1811.5286 + 6624.0001   ER051C51
         K14Qh3K  S2014 08 29.22462 02 09 33.33 +70 51 44.4                LER051C51
         K14Qh3K  s2014 08 29.22462 1 -  271.1986 + 1887.6649 + 6603.9998   ER051C51
         K14Qh3K  S2014 08 29.29033 02 09 34.46 +70 53 40.9                LER051C51
         K14Qh3K  s2014 08 29.29033 1 -  289.6826 + 1843.7104 + 6615.5931   ER051C51
         K14Qh3K  S2014 08 29.42187 02 09 36.18 +70 57 32.8                LER051C51
         K14Qh3K  s2014 08 29.42187 1 -  298.0248 + 1831.9155 + 6618.4988   ER051C51
         K14Qh3K KC2014 08 30.36103 02 09 46.88 +71 24 58.6          20.9 RoER051291
         K14Qh3K KC2014 08 30.36373 02 09 46.87 +71 25 03.1                oER051291
         K14Qh3K KC2014 08 30.36643 02 09 46.85 +71 25 07.9                oER051291
         K14Qh3K KC2014 08 30.37392 02 09 46.49 +71 25 21.8          20.9 RqER051H36
         K14Qh3K KC2014 08 30.42870 02 09 46.52 +71 26 55.0          21.2 RqER051H36
         K14Qh3K KC2014 08 30.44065 02 09 46.53 +71 27 14.6          20.9 RqER051H36
         K14Qh3K KC2014 08 31.45434 02 09 50.11 +71 56 05.6                oER051291
         K14Qh3K KC2014 08 31.45677 02 09 50.19 +71 56 10.0          20.1 RoER051291
         K14Qh3K 2C2014 09 03.59515002 09 16.526+73 21 16.86         20.6 RtER051568
         K14Qh3K 2C2014 09 03.59631902 09 16.486+73 21 18.67         20.6 RtER051568
         K14Qh3K KC2014 09 05.32927 02 08 27.20 +74 05 35.1          20.7 RoER051291
         K14Qh3K KC2014 09 05.33258 02 08 27.04 +74 05 40.3          20.8 RoER051291
         K14Qh3K KC2014 09 05.33587 02 08 26.90 +74 05 44.9          20.7 RoER051291
    
    Observer details:
    291 LPL/Spacewatch II.  Observers T. H. Bressi, J. V. Scotti.  1.8-m f/2.7
        reflector + CCD.
    568 Mauna Kea.  Observer D. J. Tholen.  2.24-m University of Hawaii reflector.
    C51 WISE.  Measurers A. K. Mainzer, J. M. Bauer, T. Grav, J. R. Masiero,
        J. W. Dailey, R. M. Cutri, E. L. Wright, C. Nugent, S. Sonnett,
        R. Stevenson.
    H36 Sandlot Observatory, Scranton.  Observer G. Hug.  0.56-m reflector + CCD.
    
    Orbital elements:
    2014 QK433                                               Earth MOID = 0.1790 AU
    Epoch 2014 Dec. 9.0 TT = JDT 2457000.5                  MPC
    M  34.72210              (2000.0)            P               Q
    n   0.19405487     Peri.    2.05885     +0.64490583     +0.58347456
    a   2.9547428      Node   308.57420     -0.70991058     +0.21812658
    e   0.5964841      Incl.   39.15195     -0.28306084     +0.78229037
    P   5.08           H   18.4           G   0.15           U   7
    Residuals in seconds of arc
    140828 C51  0.5+  0.0     140829 C51  0.5+  0.3-    140831 291  0.6-  0.1-
    140828 C51  1.2+  0.7-    140829 C51  0.4+  0.6-    140831 291  0.1-  0.2+
    140828 C51  0.6-  0.7-    140830 291  0.0   0.4+    140903 568  0.0   0.0
    140828 C51  1.5-  1.4+    140830 291  0.1-  0.1+    140903 568  0.0   0.0
    140829 C51  0.3-  0.7+    140830 291  0.2-  0.2+    140905 291  0.1-  0.1+
    140829 C51  0.1+  0.3+    140830 H36  0.0   1.1+    140905 291  0.2-  0.3+
    140829 C51  0.1+  0.0     140830 H36  0.5+  0.5-    140905 291  0.1-  0.2-
    140829 C51  0.5-  0.6-    140830 H36  0.7+  1.4-
    
    Ephemeris:
    2014 QK433               a,e,i = 2.95, 0.60, 39                  q = 1.1923
    Date    TT    R. A. (2000) Decl.     Delta      r     Elong.  Phase     V
    2014 08 06    01 47 10.3 +56 34 08   0.9723  1.3548    86.0    48.3    20.8
    ...
    2014 08 21    02 04 51.2 +66 27 50   1.0372  1.4433    89.5    44.5    21.0
    ...
    2014 08 29    02 09 30.6 +70 45 07   1.0728  1.4949    91.7    42.5    21.1
    ...
    2014 09 04    02 09 07.2 +73 31 41   1.0991  1.5352    93.4    41.0    21.1
    2014 09 05    02 08 37.7 +73 57 14   1.1035  1.5420    93.7    40.7    21.2
    2014 09 06    02 07 59.8 +74 22 08   1.1078  1.5488    94.0    40.5    21.2
    ...
    2014 09 12    02 00 49.2 +76 37 52   1.1335  1.5905    95.8    39.0    21.2
    ...
    2014 09 20    01 39 58.0 +78 59 10   1.1667  1.6474    98.4    37.1    21.3
    ...
    2014 10 05    00 25 56.3 +80 52 21   1.2273  1.7566   103.6    33.6    21.5
    
    A. U. Tomatic                (C) Copyright 2014 MPC           M.P.E.C. 2014-R51
    

    Read MPEC 2014-R50 Read MPEC 2014-R52


    MPEC number:

    Enter an MPEC number in one of the following forms:

    • 1997-B01 (the full form)
    • J97B01 (the packed version of the full form)
    • B01 (the abbreviated form)